NORTHERN QUEENS  -  Freeze Warning Freeze Warning        SOUTHERN QUEENS  -  Freeze Warning Freeze Warning      

Active alerts

Northern Queens
  Details for Northern Queens Freeze Warning
Southern Queens
  Details for Southern Queens Freeze Warning


WXM80 ListenWXM80 Stop

You find our weather info also at:

UK Metoffice

WeatherCloud

Weather Underground

Northeastern Weather Network

AWEKAS

Citizen Weather Observer Program (CWOP)

HAMweather, WeatherForYou, PWS Weather


Weather Underground History page Text

Daily Summary for December 14, 2017 Units:  Metric    English   Both
« Previous Day
Next Day »
Daily Weekly Monthly Yearly Custom
  High: Low: Average:
Temperature: -0.2 °C -4.8 °C -2.7 °C
Dew Point: -3.2 °C -11.9 °C -6.6 °C
Humidity: 93 % 53 % 76 %
Wind Speed: 18.8 km/h 0 km/h 7.1 km/h
Wind Gust: 35.2 km/h - -
Wind:- - SW
Pressure: 1019.2 hPa 992.8 hPa -
Precipitation: 1.27 mm    
Historical Graphs
 
 
Tabular Data for December 14, 2017
Time Temperature Dew Point Pressure Wind Wind Speed Wind Gust Humidity Rainfall Rate (Hourly)
00:01 -1.9 °C -9.3 °C 1005 hPa SSW 11.6 km/h 18.5 km/h 57 % 0 mm
00:06 -2 °C -8.7 °C 1005 hPa WSW 14.5 km/h 25.9 km/h 60 % 0 mm
00:16 -2.2 °C -8.1 °C 1005 hPa SSW 9.2 km/h 19.3 km/h 64 % 0 mm
00:21 -2.2 °C -7.5 °C 1005 hPa SSE 5.6 km/h 11.1 km/h 67 % 0 mm
00:25 -2.3 °C -7.2 °C 1005 hPa WSW 10.3 km/h 18.5 km/h 69 % 0 mm
00:30 -2.3 °C -6.9 °C 1005 hPa West 12.1 km/h 20.4 km/h 71 % 0 mm
00:35 -2.5 °C -6.7 °C 1005 hPa WSW 10 km/h 18.5 km/h 73 % 0 mm
00:40 -2.6 °C -6.6 °C 1005 hPa WSW 10.1 km/h 19.3 km/h 74 % 0 mm
00:45 -2.7 °C -6.4 °C 1005 hPa WSW 7.4 km/h 18.5 km/h 76 % 0 mm
00:50 -2.8 °C -6.3 °C 1004.6 hPa WSW 10.9 km/h 22.2 km/h 77 % 0 mm
00:53 -2.9 °C -6.3 °C 997.2 hPa WSW 6.3 km/h 11.1 km/h 77 % 0 mm
00:58 -3 °C -6.1 °C 1004.6 hPa SSW 6 km/h 11.1 km/h 79 % 0 mm
01:03 -3.1 °C -6 °C 1004.6 hPa West 7.7 km/h 17.7 km/h 80 % 0 mm
01:08 -3.2 °C -5.9 °C 1004.3 hPa SW 4.3 km/h 9.3 km/h 81 % 0 mm
01:13 -3.2 °C -5.8 °C 1004.3 hPa SW 5.6 km/h 7.4 km/h 82 % 0 mm
01:20 -3.3 °C -5.8 °C 996.8 hPa SW 3.7 km/h 5.6 km/h 83 % 0 mm
01:33 -3.4 °C -5.9 °C 1003.9 hPa WSW 0.6 km/h 3.7 km/h 83 % 0 mm
01:34 -3.4 °C -5.9 °C 996.5 hPa WSW 1 km/h 3.7 km/h 83 % 0 mm
01:39 -3.5 °C -5.8 °C 1003.9 hPa SW 4.5 km/h 5.6 km/h 84 % 0 mm
01:44 -3.6 °C -5.9 °C 1003.6 hPa Calm     84 % 0 mm
01:49 -3.6 °C -5.9 °C 1003.6 hPa SW 1.4 km/h 3.7 km/h 84 % 0 mm
01:54 -3.7 °C -5.8 °C 1003.6 hPa SW 0.5 km/h 1.9 km/h 85 % 0 mm
02:09 -3.8 °C -5.9 °C 1003.6 hPa SW 1.3 km/h 1.9 km/h 85 % 0 mm
02:17 -3.8 °C -5.8 °C 995.8 hPa Calm     86 % 0 mm
02:27 -3.9 °C -5.9 °C 1003.3 hPa Calm     86 % 0 mm
02:32 -3.9 °C -5.7 °C 1002.9 hPa Calm     87 % 0 mm
02:37 -3.9 °C -5.7 °C 1002.9 hPa Calm     87 % 0 mm
02:42 -3.9 °C -5.7 °C 1002.9 hPa Calm     88 % 0 mm
02:47 -3.9 °C -5.7 °C 1002.9 hPa Calm     88 % 0.25 mm
02:52 -3.9 °C -5.7 °C 1002.9 hPa Calm     88 % 0.25 mm
02:57 -4 °C -5.7 °C 1002.9 hPa Calm     88 % 0.25 mm
03:02 -4 °C -5.7 °C 1002.6 hPa Calm     88 % 0.25 mm
03:06 -4.1 °C -5.7 °C 994.8 hPa Calm     88 % 0.25 mm
03:12 -4.1 °C -5.7 °C 1002.6 hPa Calm     88 % 0.25 mm
03:17 -4.1 °C -5.8 °C 1002.3 hPa Calm     88 % 0.25 mm
03:22 -4.1 °C -5.8 °C 1002.3 hPa Calm     88 % 0.51 mm
03:32 -4.2 °C -5.7 °C 1002.3 hPa Calm     89 % 0.51 mm
03:37 -4.2 °C -5.8 °C 1001.9 hPa Calm     89 % 0.51 mm
03:40 -4.2 °C -5.8 °C 994.5 hPa Calm     89 % 0.51 mm
03:42 -4.2 °C -5.8 °C 1001.9 hPa Calm     89 % 0.51 mm
03:47 -4.2 °C -5.8 °C 1001.9 hPa Calm     89 % 0.25 mm
03:49 -4.3 °C -5.8 °C 994.1 hPa Calm     89 % 0.25 mm
03:52 -4.3 °C -5.8 °C 1001.6 hPa Calm     89 % 0.25 mm
03:54 -4.3 °C -5.8 °C 994.1 hPa Calm     89 % 0.25 mm
03:59 -4.3 °C -5.8 °C 1001.6 hPa Calm     89 % 0.25 mm
04:09 -4.3 °C -5.8 °C 1001.6 hPa Calm     89 % 0.25 mm
04:14 -4.3 °C -5.9 °C 1001.6 hPa Calm     89 % 0.25 mm
04:19 -4.3 °C -5.9 °C 1001.2 hPa Calm     89 % 0 mm
04:24 -4.3 °C -5.7 °C 1001.2 hPa Calm     90 % 0 mm
04:29 -4.3 °C -5.7 °C 1000.9 hPa Calm     90 % 0 mm
04:30 -4.3 °C -5.7 °C 993.5 hPa Calm     90 % 0 mm
04:34 -4.3 °C -5.7 °C 1000.9 hPa Calm     90 % 0 mm
04:39 -4.3 °C -5.7 °C 1000.9 hPa Calm     90 % 0 mm
04:44 -4.3 °C -5.7 °C 1000.9 hPa Calm     90 % 0 mm
04:50 -4.3 °C -5.7 °C 1000.9 hPa Calm     90 % 0 mm
04:55 -4.3 °C -5.7 °C 1000.9 hPa Calm     90 % 0 mm
04:59 -4.2 °C -5.6 °C 1000.9 hPa Calm     90 % 0 mm
05:09 -4.2 °C -5.6 °C 1000.6 hPa Calm     90 % 0 mm
05:14 -4.1 °C -5.5 °C 1000.6 hPa Calm     90 % 0 mm
05:19 -4.1 °C -5.4 °C 1000.6 hPa Calm     90 % 0 mm
05:23 -4.1 °C -5.4 °C 992.8 hPa Calm     90 % 0 mm
05:24 -4.1 °C -5.4 °C 992.8 hPa Calm     90 % 0 mm
05:28 -4 °C -5.4 °C 1000.6 hPa Calm     90 % 0 mm
05:33 -3.9 °C -5.3 °C 1000.6 hPa SW 5.3 km/h 6.4 km/h 90 % 0 mm
05:38 -3.8 °C -5.1 °C 993.1 hPa ENE 1 km/h 5.6 km/h 91 % 0 mm
05:43 -3.7 °C -4.9 °C 1000.6 hPa NNE 1 km/h 3.7 km/h 91 % 0 mm
05:48 -3.5 °C -4.6 °C 1000.6 hPa NNW 1.4 km/h 5.6 km/h 92 % 0 mm
05:49 -3.4 °C -4.6 °C 993.1 hPa North 3.9 km/h 7.4 km/h 92 % 0 mm
05:53 -3.3 °C -4.4 °C 1000.6 hPa NNE 4.7 km/h 9.3 km/h 92 % 0 mm
05:58 -3.1 °C -4 °C 1000.6 hPa NNE 2.7 km/h 5.6 km/h 93 % 0 mm
06:03 -2.9 °C -3.9 °C 1000.6 hPa NNE 7.1 km/h 11.3 km/h 93 % 0 mm
06:08 -2.7 °C -3.7 °C 1000.9 hPa NNE 3.5 km/h 5.6 km/h 93 % 0 mm
06:13 -2.6 °C -3.6 °C 1000.9 hPa NE 0.8 km/h 5.6 km/h 93 % 0 mm
06:18 -2.5 °C -3.5 °C 1000.9 hPa NNE 1.1 km/h 5.6 km/h 93 % 0 mm
06:20 -2.4 °C -3.4 °C 993.5 hPa NNE 1 km/h 9.3 km/h 93 % 0 mm
06:25 -2.3 °C -3.3 °C 1001.2 hPa ENE 3.5 km/h 9.3 km/h 93 % 0 mm
06:29 -2.3 °C -3.3 °C 993.8 hPa North 2.1 km/h 7.4 km/h 93 % 0 mm
06:34 -2.2 °C -3.2 °C 1001.2 hPa NNE 2.7 km/h 5.6 km/h 93 % 0 mm
06:39 -2.2 °C -3.2 °C 1001.6 hPa NNE 3.9 km/h 8 km/h 93 % 0 mm
06:44 -2.2 °C -3.2 °C 1001.6 hPa North 4.5 km/h 5.6 km/h 93 % 0 mm
06:50 -2.2 °C -3.2 °C 1001.6 hPa NNE 5.1 km/h 7.4 km/h 93 % 0 mm
06:55 -2.2 °C -3.2 °C 1001.6 hPa NNE 2.3 km/h 5.6 km/h 93 % 0 mm
07:00 -2.2 °C -3.3 °C 994.1 hPa NNE 6.4 km/h 9.7 km/h 92 % 0 mm
07:05 -2.2 °C -3.3 °C 1001.9 hPa NE 4.8 km/h 9.3 km/h 92 % 0 mm
07:07 -2.2 °C -3.3 °C 994.1 hPa North 7.2 km/h 11.1 km/h 92 % 0 mm
07:12 -2.2 °C -3.3 °C 1001.9 hPa NNE 6.6 km/h 9.7 km/h 92 % 0 mm
07:17 -2.2 °C -3.3 °C 1001.9 hPa NNE 4.2 km/h 9.3 km/h 92 % 0 mm
07:22 -2.3 °C -3.4 °C 994.5 hPa NNE 4.2 km/h 8 km/h 92 % 0 mm
07:28 -2.3 °C -3.4 °C 1001.9 hPa NE 5.3 km/h 9.7 km/h 92 % 0 mm
07:33 -2.3 °C -3.4 °C 1002.3 hPa NNE 3.9 km/h 7.4 km/h 92 % 0 mm
07:38 -2.3 °C -3.3 °C 1001.9 hPa North 6 km/h 11.3 km/h 93 % 0 mm
07:43 -2.3 °C -3.3 °C 1001.9 hPa North 3.4 km/h 6.4 km/h 93 % 0 mm
07:46 -2.3 °C -3.3 °C 994.5 hPa ENE 1.3 km/h 5.6 km/h 93 % 0 mm
07:51 -2.3 °C -3.3 °C 1002.3 hPa NE 3.2 km/h 9.7 km/h 93 % 0 mm
07:56 -2.3 °C -3.3 °C 1002.3 hPa NNE 4.8 km/h 8 km/h 93 % 0 mm
08:01 -2.3 °C -3.3 °C 1002.6 hPa NNE 2.1 km/h 4.8 km/h 93 % 0.25 mm
08:03 -2.3 °C -3.3 °C 995.1 hPa North 5 km/h 7.4 km/h 93 % 0.51 mm
08:06 -2.3 °C -3.3 °C 1002.3 hPa NNE 3.2 km/h 8 km/h 93 % 0 mm
08:11 -2.3 °C -3.3 °C 1002.3 hPa NNE 4.8 km/h 9.7 km/h 93 % 0 mm
08:15 -2.3 °C -3.3 °C 995.1 hPa NNE 7.2 km/h 11.1 km/h 93 % 0.51 mm
08:20 -2.4 °C -3.4 °C 1002.9 hPa NNE 7.1 km/h 11.1 km/h 93 % 0.51 mm
08:25 -2.4 °C -3.4 °C 1003.3 hPa North 4.2 km/h 11.1 km/h 93 % 0.51 mm
08:30 -2.4 °C -3.4 °C 1003.3 hPa NNE 8 km/h 9.7 km/h 93 % 0.51 mm
08:35 -2.5 °C -3.5 °C 1003.3 hPa NNE 6.3 km/h 9.7 km/h 93 % 0.76 mm
08:40 -2.6 °C -3.6 °C 1003.6 hPa NE 5.5 km/h 11.3 km/h 93 % 0.76 mm
08:42 -2.6 °C -3.6 °C 995.8 hPa NNE 8.9 km/h 16.7 km/h 93 % 0.76 mm
08:47 -2.6 °C -3.6 °C 1003.6 hPa NNE 6.4 km/h 9.3 km/h 93 % 0.51 mm
08:52 -2.6 °C -3.6 °C 1003.6 hPa NNE 8.4 km/h 16.1 km/h 93 % 0.51 mm
08:57 -2.6 °C -3.6 °C 1003.9 hPa NE 6.9 km/h 11.3 km/h 93 % 0.51 mm
09:02 -2.6 °C -3.6 °C 1003.9 hPa NNE 9 km/h 13 km/h 93 % 0.25 mm
09:07 -2.6 °C -3.6 °C 1003.9 hPa NNE 6.8 km/h 11.3 km/h 93 % 0.25 mm
09:08 -2.6 °C -3.6 °C 996.5 hPa NE 7.2 km/h 9.7 km/h 93 % 0.25 mm
09:12 -2.6 °C -3.6 °C 1004.3 hPa NNE 8 km/h 11.3 km/h 93 % 0.25 mm
09:17 -2.7 °C -3.8 °C 1004.3 hPa North 7.9 km/h 13 km/h 92 % 0.25 mm
09:22 -2.7 °C -3.8 °C 1004.6 hPa NNE 7.7 km/h 16.7 km/h 92 % 0.25 mm
09:25 -2.8 °C -3.9 °C 997.2 hPa North 9.8 km/h 12.9 km/h 92 % 0.25 mm
09:30 -2.9 °C -4.2 °C 1004.6 hPa North 10 km/h 13 km/h 91 % 0.25 mm
09:36 -2.9 °C -4.2 °C 1005 hPa NNE 8 km/h 16.1 km/h 91 % 0 mm
09:41 -2.9 °C -4.2 °C 1005.3 hPa North 8 km/h 16.1 km/h 91 % 0 mm
09:46 -2.9 °C -4.2 °C 1005.3 hPa North 3.2 km/h 8 km/h 91 % 0 mm
09:51 -3 °C -4.4 °C 1005.3 hPa North 9.7 km/h 14.5 km/h 90 % 0 mm
09:56 -2.9 °C -4.4 °C 1005.6 hPa North 8 km/h 11.3 km/h 90 % 0 mm
10:01 -2.9 °C -4.3 °C 1005.6 hPa NNE 7.2 km/h 11.1 km/h 90 % 0 mm
10:04 -2.9 °C -4.3 °C 998.2 hPa North 2.3 km/h 7.4 km/h 90 % 0 mm
10:06 -2.9 °C -4.3 °C 1005.6 hPa NNW 2.6 km/h 5.6 km/h 90 % 0 mm
10:11 -2.9 °C -4.3 °C 1005.6 hPa NNE 6.6 km/h 11.1 km/h 90 % 0 mm
10:16 -2.8 °C -4.4 °C 1006 hPa NW 4.8 km/h 9.3 km/h 89 % 0 mm
10:21 -2.7 °C -4.3 °C 1006 hPa North 8.9 km/h 13 km/h 89 % 0 mm
10:26 -2.6 °C -4.2 °C 1006 hPa NNE 6.3 km/h 9.3 km/h 89 % 0 mm
10:27 -2.6 °C -4.1 °C 998.5 hPa NNE 4 km/h 7.4 km/h 89 % 0 mm
10:33 -2.5 °C -4.2 °C 1006 hPa North 7.4 km/h 11.3 km/h 88 % 0 mm
10:38 -2.4 °C -4.1 °C 1006 hPa North 8.4 km/h 9.7 km/h 88 % 0 mm
10:43 -2.3 °C -4.2 °C 1006.3 hPa NNE 3.9 km/h 5.6 km/h 87 % 0 mm
10:48 -2.2 °C -4.2 °C 1006.3 hPa North 2.6 km/h 9.7 km/h 86 % 0 mm
10:53 -2.2 °C -4.2 °C 1006 hPa NNE 6 km/h 8 km/h 86 % 0 mm
10:58 -2.1 °C -4.1 °C 1006 hPa NNW 6.1 km/h 11.1 km/h 86 % 0 mm
10:59 -2 °C -4.1 °C 998.5 hPa NE 6.4 km/h 11.1 km/h 86 % 0 mm
11:04 -2.1 °C -4.4 °C 1006 hPa North 6.9 km/h 13 km/h 84 % 0 mm
11:09 -2 °C -4.3 °C 1006 hPa NNW 1.9 km/h 5.6 km/h 84 % 0 mm
11:14 -1.9 °C -4.3 °C 1006 hPa North 5.3 km/h 11.1 km/h 84 % 0 mm
11:19 -1.9 °C -4.3 °C 1006.3 hPa NNW 4.5 km/h 9.3 km/h 84 % 0 mm
11:24 -1.8 °C -4.2 °C 1006.3 hPa NNW 4.5 km/h 9.3 km/h 84 % 0 mm
11:29 -1.8 °C -4.1 °C 1006.7 hPa NNE 5.3 km/h 9.3 km/h 84 % 0 mm
11:35 -1.8 °C -4.1 °C 1006.3 hPa NW 4 km/h 7.4 km/h 84 % 0 mm
11:40 -1.7 °C -4.2 °C 1006.7 hPa NW 4.2 km/h 9.3 km/h 83 % 0 mm
11:41 -1.8 °C -4.3 °C 1006.7 hPa NW 1.8 km/h 13 km/h 83 % 0 mm
11:46 -1.7 °C -4.2 °C 1007 hPa WNW 2.1 km/h 5.6 km/h 83 % 0 mm
11:51 -1.7 °C -4.4 °C 1007 hPa WNW 4 km/h 6.4 km/h 82 % 0 mm
11:53 -1.7 °C -4.4 °C 1007 hPa WNW 4.7 km/h 12.9 km/h 82 % 0 mm
11:58 -1.7 °C -4.6 °C 1006.7 hPa WNW 7.4 km/h 14.8 km/h 81 % 0 mm
12:03 -1.7 °C -4.7 °C 1007 hPa NW 2.4 km/h 6.4 km/h 80 % 0 mm
12:08 -1.6 °C -4.6 °C 1007 hPa West 5.6 km/h 11.3 km/h 80 % 0 mm
12:13 -1.5 °C -4.7 °C 1007 hPa West 7.9 km/h 13 km/h 79 % 0 mm
12:18 -1.3 °C -4.5 °C 1007 hPa WNW 5.5 km/h 11.1 km/h 79 % 0 mm
12:19 -1.3 °C -4.4 °C 999.5 hPa WNW 5.8 km/h 14.5 km/h 79 % 0 mm
12:22 -1.2 °C -4.3 °C 999.5 hPa WNW 3.1 km/h 8 km/h 79 % 0 mm
12:28 -0.9 °C -4.2 °C 1007 hPa WNW 3.9 km/h 7.4 km/h 78 % 0 mm
12:33 -0.7 °C -4.2 °C 1007.3 hPa NW 8.7 km/h 9.3 km/h 77 % 0 mm
12:38 -0.6 °C -4.3 °C 1007.3 hPa WNW 6.8 km/h 20.4 km/h 76 % 0 mm
12:43 -0.4 °C -4.3 °C 1007.3 hPa NNW 5.8 km/h 13 km/h 75 % 0 mm
12:48 -0.3 °C -4.4 °C 1007.3 hPa NNW 7.1 km/h 14.8 km/h 74 % 0 mm
12:53 -0.3 °C -4.3 °C 999.9 hPa WNW 10.5 km/h 14.8 km/h 74 % 0 mm
12:58 -0.3 °C -4.4 °C 1007.3 hPa NW 4.8 km/h 9.3 km/h 74 % 0 mm
13:03 -0.3 °C -4.3 °C 1007.7 hPa North 11.3 km/h 20.4 km/h 74 % 0 mm
13:08 -0.3 °C -4.6 °C 1007.7 hPa North 7.6 km/h 20.4 km/h 73 % 0 mm
13:13 -0.3 °C -4.7 °C 1007.7 hPa NW 9.5 km/h 18.5 km/h 72 % 0 mm
13:15 -0.2 °C -4.7 °C 1000.2 hPa WNW 10.8 km/h 22.2 km/h 72 % 0 mm
13:18 -0.3 °C -4.9 °C 1000.2 hPa West 8.4 km/h 14.5 km/h 71 % 0 mm
13:20 -0.3 °C -5.2 °C 1008 hPa West 12.9 km/h 24.1 km/h 70 % 0 mm
13:25 -0.5 °C -5.3 °C 1008 hPa WNW 9.7 km/h 18.5 km/h 70 % 0 mm
13:28 -0.5 °C -5.1 °C 1000.6 hPa NW 11.4 km/h 18.5 km/h 71 % 0 mm
13:30 -0.5 °C -4.7 °C 1008 hPa NNW 7.4 km/h 11.1 km/h 73 % 0 mm
13:35 -0.4 °C -4.5 °C 1008 hPa NW 8.4 km/h 16.7 km/h 74 % 0 mm
13:41 -0.4 °C -4.7 °C 1008.4 hPa NNW 11.3 km/h 19.3 km/h 73 % 0 mm
13:46 -0.5 °C -5.1 °C 1008.4 hPa NNW 7.4 km/h 8 km/h 71 % 0 mm
13:51 -0.6 °C -4.8 °C 1008.4 hPa NW 9.7 km/h 19.3 km/h 73 % 0 mm
13:56 -0.7 °C -5.1 °C 1008.4 hPa NW 8 km/h 19.3 km/h 72 % 0 mm
14:01 -0.7 °C -5.3 °C 1008.7 hPa NW 12.9 km/h 22.5 km/h 71 % 0 mm
14:06 -0.7 °C -5.1 °C 1008.7 hPa WNW 4.8 km/h 24.1 km/h 72 % 0 mm
14:07 -0.7 °C -4.9 °C 1001.2 hPa WNW 11.3 km/h 20.9 km/h 73 % 0 mm
14:12 -0.7 °C -5.3 °C 1008.7 hPa WNW 11.9 km/h 22.2 km/h 71 % 0 mm
14:17 -0.7 °C -5.4 °C 1008.7 hPa WNW 8 km/h 13 km/h 70 % 0 mm
14:22 -0.6 °C -5.1 °C 1001.6 hPa NW 10.3 km/h 25.7 km/h 72 % 0 mm
14:23 -0.6 °C -4.8 °C 1009 hPa West 11.9 km/h 25.9 km/h 73 % 0 mm
14:28 -0.7 °C -4.9 °C 1009.4 hPa WNW 9.5 km/h 20.4 km/h 73 % 0 mm
14:33 -0.7 °C -4.9 °C 1009 hPa NW 8 km/h 20.4 km/h 73 % 0 mm
14:34 -0.6 °C -4.8 °C 1001.9 hPa WSW 5.8 km/h 20.4 km/h 73 % 0 mm
14:39 -0.6 °C -5.4 °C 1009.4 hPa West 5.3 km/h 11.3 km/h 70 % 0 mm
14:44 -0.6 °C -5.1 °C 1009.4 hPa WNW 6.1 km/h 13 km/h 72 % 0 mm
14:49 -0.6 °C -4.7 °C 1009.7 hPa NNW 12.1 km/h 20.4 km/h 74 % 0 mm
14:54 -0.6 °C -4.8 °C 1010 hPa WNW 6 km/h 11.3 km/h 73 % 0 mm
14:59 -0.6 °C -4.8 °C 1010 hPa North 13.5 km/h 29.6 km/h 73 % 0 mm
15:04 -0.5 °C -5.5 °C 1010 hPa NW 12.7 km/h 25.9 km/h 69 % 0 mm
15:09 -0.5 °C -5.5 °C 1010.4 hPa SW 14.3 km/h 24.1 km/h 69 % 0 mm
15:14 -0.5 °C -6.3 °C 1010.4 hPa WNW 8.9 km/h 20.4 km/h 65 % 0 mm
15:19 -0.7 °C -6.7 °C 1010.4 hPa NW 11.6 km/h 20.9 km/h 64 % 0 mm
15:25 -0.8 °C -6.7 °C 1010.4 hPa WSW 8.2 km/h 14.8 km/h 64 % 0 mm
15:30 -0.9 °C -6.8 °C 1010.7 hPa West 16.9 km/h 35.2 km/h 64 % 0 mm
15:35 -0.9 °C -6.7 °C 1010.7 hPa West 10 km/h 25.9 km/h 65 % 0 mm
15:40 -1 °C -6.6 °C 1011.1 hPa NNW 2.9 km/h 16.7 km/h 66 % 0 mm
15:43 -1.1 °C -6.6 °C 1003.6 hPa NW 5.1 km/h 14.8 km/h 66 % 0 mm
15:48 -1.1 °C -6.8 °C 1011.1 hPa NW 16.7 km/h 29.6 km/h 65 % 0 mm
15:53 -1.1 °C -7.1 °C 1011.4 hPa West 14.5 km/h 29.6 km/h 64 % 0 mm
15:58 -1.1 °C -7.5 °C 1011.4 hPa WNW 14.5 km/h 27.8 km/h 62 % 0 mm
16:03 -1.2 °C -7.3 °C 1011.4 hPa NW 15 km/h 22.2 km/h 63 % 0 mm
16:08 -1.3 °C -7.4 °C 1011.4 hPa West 8.7 km/h 25.9 km/h 63 % 0 mm
16:13 -1.3 °C -7.7 °C 1011.4 hPa WSW 13.5 km/h 25.9 km/h 62 % 0 mm
16:14 -1.4 °C -7.7 °C 1011.4 hPa WNW 12.2 km/h 25.9 km/h 62 % 0 mm
16:19 -1.5 °C -8.1 °C 1011.4 hPa West 11.7 km/h 29.6 km/h 61 % 0 mm
16:24 -1.6 °C -8.4 °C 1011.7 hPa NW 11.1 km/h 27.4 km/h 60 % 0 mm
16:29 -1.7 °C -8.5 °C 1011.7 hPa West 8.4 km/h 14.8 km/h 60 % 0 mm
16:34 -1.8 °C -8.4 °C 1012.1 hPa NW 10.5 km/h 24.1 km/h 61 % 0 mm
16:39 -1.9 °C -8.4 °C 1012.1 hPa West 12.6 km/h 18.5 km/h 61 % 0 mm
16:44 -1.9 °C -8.4 °C 1012.1 hPa WNW 10.1 km/h 20.4 km/h 61 % 0 mm
16:49 -1.9 °C -8.5 °C 1012.8 hPa West 10.9 km/h 18.5 km/h 61 % 0 mm
16:54 -2 °C -8.9 °C 1012.8 hPa WNW 11.3 km/h 20.4 km/h 59 % 0 mm
16:59 -2.1 °C -9 °C 1013.1 hPa WNW 12.4 km/h 16.7 km/h 59 % 0 mm
17:04 -2.1 °C -8.8 °C 1013.4 hPa West 11.6 km/h 17.7 km/h 60 % 0 mm
17:09 -2.2 °C -9.6 °C 1013.4 hPa West 10.3 km/h 20.4 km/h 57 % 0 mm
17:14 -2.3 °C -9.7 °C 1013.8 hPa NW 5.6 km/h 18.5 km/h 57 % 0 mm
17:19 -2.3 °C -9.5 °C 1013.8 hPa East 8.7 km/h 16.7 km/h 58 % 0 mm
17:24 -2.4 °C -9.4 °C 1013.8 hPa WNW 10.3 km/h 19.3 km/h 59 % 0 mm
17:29 -2.4 °C -9.4 °C 1013.8 hPa NW 8.5 km/h 18.5 km/h 59 % 0 mm
17:34 -2.5 °C -9.4 °C 1014.1 hPa NW 14.5 km/h 24.1 km/h 59 % 0 mm
17:40 -2.4 °C -9.6 °C 1014.1 hPa NNW 10 km/h 16.7 km/h 58 % 0 mm
17:45 -2.5 °C -9.7 °C 1014.1 hPa NNW 9.8 km/h 14.8 km/h 58 % 0 mm
17:50 -2.6 °C -9.7 °C 1014.4 hPa WSW 14.3 km/h 27.8 km/h 58 % 0 mm
17:55 -2.6 °C -9.7 °C 1014.8 hPa WNW 6.9 km/h 22.2 km/h 58 % 0 mm
18:00 -2.6 °C -10.2 °C 1014.4 hPa WNW 12.4 km/h 27.8 km/h 56 % 0 mm
18:05 -2.6 °C -10.2 °C 1014.4 hPa West 12.7 km/h 25.9 km/h 56 % 0 mm
18:10 -2.6 °C -9.9 °C 1014.4 hPa WNW 17.4 km/h 29.6 km/h 57 % 0 mm
18:15 -2.7 °C -10 °C 1014.8 hPa NW 10.1 km/h 19.3 km/h 57 % 0 mm
18:20 -2.7 °C -9.8 °C 1014.8 hPa WNW 7.2 km/h 18.5 km/h 58 % 0 mm
18:25 -2.7 °C -9.8 °C 1014.8 hPa NW 12.6 km/h 25.9 km/h 58 % 0 mm
18:30 -2.7 °C -9.8 °C 1015.1 hPa NW 11.9 km/h 18.5 km/h 58 % 0 mm
18:35 -2.8 °C -10.3 °C 1015.5 hPa West 8.9 km/h 16.7 km/h 56 % 0 mm
18:40 -2.8 °C -9.9 °C 1015.1 hPa WSW 13.8 km/h 27.8 km/h 58 % 0 mm
18:45 -2.8 °C -10.2 °C 1015.5 hPa West 15 km/h 22.2 km/h 57 % 0 mm
18:51 -2.8 °C -10.4 °C 1015.5 hPa WNW 10.1 km/h 22.2 km/h 56 % 0 mm
18:55 -2.9 °C -10 °C 1015.8 hPa West 8.7 km/h 16.7 km/h 58 % 0 mm
19:01 -2.9 °C -10.3 °C 1015.8 hPa WNW 8.4 km/h 22.2 km/h 57 % 0 mm
19:06 -2.9 °C -10.1 °C 1016.1 hPa West 7.1 km/h 20.4 km/h 58 % 0 mm
19:11 -2.9 °C -10.1 °C 1016.1 hPa West 11.9 km/h 22.2 km/h 58 % 0 mm
19:16 -2.9 °C -10.1 °C 1016.1 hPa WSW 13.7 km/h 18.5 km/h 58 % 0 mm
19:21 -3 °C -10.3 °C 1016.1 hPa West 9.3 km/h 22.5 km/h 57 % 0 mm
19:26 -3.1 °C -10.4 °C 1016.5 hPa WNW 13.8 km/h 22.2 km/h 57 % 0 mm
19:28 -3.1 °C -10.4 °C 1016.5 hPa WNW 7.6 km/h 13 km/h 57 % 0 mm
19:33 -3.1 °C -10.4 °C 1016.5 hPa WNW 11.4 km/h 24.1 km/h 57 % 0 mm
19:38 -3.2 °C -10.3 °C 1016.5 hPa NNW 5 km/h 9.3 km/h 58 % 0 mm
19:43 -3.2 °C -10.1 °C 1016.5 hPa WNW 10.5 km/h 20.4 km/h 59 % 0 mm
19:48 -3.2 °C -9.9 °C 1016.5 hPa WNW 6.3 km/h 16.7 km/h 60 % 0 mm
19:53 -3.2 °C -10.1 °C 1016.5 hPa WNW 7.6 km/h 20.4 km/h 59 % 0 mm
19:58 -3.3 °C -10.2 °C 1016.8 hPa West 4.3 km/h 20.4 km/h 59 % 0 mm
20:03 -3.3 °C -10.2 °C 1016.8 hPa NNW 9.3 km/h 14.8 km/h 59 % 0 mm
20:08 -3.3 °C -10.2 °C 1016.8 hPa WNW 8 km/h 14.8 km/h 59 % 0 mm
20:13 -3.3 °C -10.9 °C 1016.8 hPa West 12.6 km/h 27.8 km/h 56 % 0 mm
20:18 -3.4 °C -11.4 °C 1017.2 hPa WNW 15.3 km/h 27.8 km/h 54 % 0 mm
20:23 -3.5 °C -11.7 °C 1017.2 hPa WSW 14.8 km/h 25.9 km/h 53 % 0 mm
20:28 -3.6 °C -11.8 °C 1017.2 hPa NW 17.2 km/h 25.9 km/h 53 % 0 mm
20:33 -3.6 °C -11.6 °C 1017.2 hPa NW 6 km/h 18.5 km/h 54 % 0 mm
20:38 -3.7 °C -11.4 °C 1017.5 hPa WNW 9.7 km/h 18.5 km/h 55 % 0 mm
20:43 -3.7 °C -11.4 °C 1017.5 hPa WNW 17.4 km/h 31.5 km/h 55 % 0 mm
20:48 -3.8 °C -11.7 °C 1017.8 hPa WNW 18.8 km/h 25.9 km/h 54 % 0 mm
20:55 -3.8 °C -11.6 °C 1017.8 hPa WNW 12.7 km/h 27.8 km/h 55 % 0 mm
21:00 -3.9 °C -11.6 °C 1017.8 hPa WNW 8.9 km/h 18.5 km/h 55 % 0 mm
21:05 -3.9 °C -11.4 °C 1018.2 hPa West 9.8 km/h 24.1 km/h 56 % 0 mm
21:10 -4 °C -11.5 °C 1018.2 hPa NW 8.7 km/h 18.5 km/h 56 % 0 mm
21:15 -4.1 °C -11.6 °C 1018.2 hPa WNW 12.6 km/h 29.6 km/h 56 % 0 mm
21:20 -4.1 °C -11.8 °C 1018.2 hPa WNW 14.5 km/h 25.9 km/h 55 % 0 mm
21:24 -4.2 °C -11.9 °C 1018.2 hPa West 11.6 km/h 18.5 km/h 55 % 0 mm
21:29 -4.2 °C -11.9 °C 1018.2 hPa NW 10.5 km/h 20.4 km/h 55 % 0 mm
21:35 -4.2 °C -11.5 °C 1018.2 hPa NW 11.1 km/h 24.1 km/h 57 % 0 mm
21:40 -4.2 °C -11.3 °C 1018.5 hPa WNW 11.1 km/h 16.7 km/h 58 % 0 mm
21:45 -4.2 °C -11.3 °C 1018.5 hPa NW 6.9 km/h 17.7 km/h 58 % 0 mm
21:50 -4.3 °C -11.6 °C 1018.5 hPa West 15.9 km/h 25.9 km/h 57 % 0 mm
21:55 -4.3 °C -11.3 °C 1018.5 hPa West 12.2 km/h 22.2 km/h 58 % 0 mm
22:00 -4.3 °C -11.3 °C 1018.5 hPa West 6.3 km/h 22.2 km/h 58 % 0 mm
22:05 -4.3 °C -11.4 °C 1018.5 hPa West 11.4 km/h 18.5 km/h 58 % 0 mm
22:11 -4.3 °C -11.6 °C 1018.5 hPa NW 10.3 km/h 25.9 km/h 57 % 0 mm
22:16 -4.4 °C -11.2 °C 1018.8 hPa West 11.7 km/h 24.1 km/h 59 % 0 mm
22:21 -4.3 °C -10.9 °C 1018.8 hPa WSW 9.3 km/h 18.5 km/h 60 % 0 mm
22:26 -4.4 °C -11.4 °C 1018.8 hPa NNW 10.6 km/h 18.5 km/h 58 % 0 mm
22:31 -4.4 °C -11 °C 1018.8 hPa NW 6.4 km/h 14.8 km/h 60 % 0 mm
22:36 -4.3 °C -10.9 °C 1019.2 hPa NW 10.6 km/h 16.7 km/h 60 % 0 mm
22:41 -4.4 °C -11 °C 1018.8 hPa NNW 15.9 km/h 25.9 km/h 60 % 0 mm
22:46 -4.4 °C -10.8 °C 1018.5 hPa WNW 6.3 km/h 20.4 km/h 61 % 0 mm
22:51 -4.4 °C -10.8 °C 1018.5 hPa NW 13.7 km/h 25.9 km/h 61 % 0 mm
22:56 -4.4 °C -10.8 °C 1018.5 hPa NW 13.7 km/h 29.6 km/h 61 % 0 mm
23:01 -4.4 °C -10.8 °C 1018.5 hPa West 9.3 km/h 18.5 km/h 61 % 0 mm
23:06 -4.4 °C -10.8 °C 1018.5 hPa WSW 10.3 km/h 20.4 km/h 61 % 0 mm
23:11 -4.4 °C -10.8 °C 1018.5 hPa WNW 12.7 km/h 22.2 km/h 61 % 0 mm
23:16 -4.5 °C -10.9 °C 1018.8 hPa West 17.4 km/h 33.8 km/h 61 % 0 mm
23:21 -4.5 °C -11.1 °C 1018.5 hPa NNW 7.4 km/h 18.5 km/h 60 % 0 mm
23:26 -4.5 °C -10.7 °C 1018.5 hPa WNW 9.3 km/h 18.5 km/h 62 % 0 mm
23:31 -4.6 °C -10.9 °C 1018.5 hPa NNW 9.7 km/h 9.7 km/h 61 % 0 mm
23:37 -4.6 °C -10.6 °C 1018.8 hPa NNW 10 km/h 14.5 km/h 63 % 0 mm
23:42 -4.6 °C -11 °C 1018.8 hPa WNW 6.3 km/h 14.8 km/h 61 % 0 mm
23:48 -4.7 °C -10.8 °C 1018.8 hPa NNW 10 km/h 17.7 km/h 62 % 0 mm
23:53 -4.7 °C -11.3 °C 1018.8 hPa NW 10 km/h 20.4 km/h 60 % 0 mm
23:58 -4.8 °C -11.2 °C 1018.5 hPa WNW 11.9 km/h 20.4 km/h 61 % 0 mm
Crab Meadow Weather
Compliments of Weather Underground - 3 mb

Script developed by  Jim McMurry - jmcmurry@mwt.net Adapted for the template by  Wim van der Kuil - Leuven-Template.eu

Lightning: At any given moment, there are about 1,800 thunderstorms happening around the world. Approximately 100 lightning bolts strike the earth every second.